User: anonymous   Login
Location: Los Gatos B&B
(42.6926°N, 77.0646°W)
Time: 23:11:31
(UTC-05:00)
Language:

Cosmos 2263 Rocket - Orbit

View from above orbital plane
View from above orbital plane
View from above satellite
View from above satellite

Ground track
Ground track

The orbit data is extracted from the following two-line orbital elements,

1 22803U 93059B   17344.17012186 +.00000160 +00000-0 +10346-3 0  9990
2 22803 070.9907 238.5980 0015225 121.6904 238.5707 14.16786508252953
Epoch (UTC): 10 December 2017 04:04:58
Eccentricity: 0.0015225
inclination: 70.9907°
perigee height: 825 km
apogee height: 847 km
right ascension of ascending node: 238.5980°
argument of perigee: 121.6904°
revolutions per day: 14.16786508
mean anomaly at epoch: 238.5707°
orbit number at epoch: 25295

The dashed part of the orbit path shows where the satellite is in the earth's shadow,  

DLR